Location: Kutna Hora
(49.9500°N, 15.2670°E)
Time: 22:50:58
(UTC+02:00)

ISS - Pass Details

Date: 30 March 2019
Orbit: 408 x 410 km, 51.6° (Epoch: 21 April)

Event Time Altitude Azimuth Distance (km) Brightness Sun altitude
Rises 19:14:11 0° 271° (W) 2,336 1.9 -8.2°
Reaches altitude 10° 19:16:17 10° 275° (W) 1,475 0.6 -8.6°
Maximum altitude 19:19:34 63° 357° (N) 463 -3.5 -9.1°
Enters shadow 19:22:40 11° 79° (E) 1,401 -1.6 -9.6°
